Погода Чулпаново

Погода Чулпаново : погода сейчас, прогноз погоды и архив. Всё, что Вы хотите узнать о погоде Чулпаново!

Поиск расширенной информации на нашем сайте:

Другие новости

Новости СМИ2

Главная страница сайта

Новости сайта

03.07.2017

Напоминаем, что на нашем специализированном сайте Метеоцентр.Азия вы можете получить высокодетализированные автоматические прогнозы погоды по пунктам России, СНГ и мира в авиационном формате (включающие направление и скорость ветра, видимость, явления погоды, количество и форму облачности, нижнюю и верхнюю границу облачности).


Погода Чулпаново - сегодня

Время (UTC), дата Ветер
(°,м/с) 
Видим.   Явления Облачность Т
(°С)
Тd
(°С)
f(%) Тe
(°С)
Pmin
(гПа)
dP
(гПа)
Po
(мм)
O2
(г/м3)
Тmin Tmax R s Состояние
почвы
00 23.09.18 010 (С) 10 км  туман поземный  3/0 верхняя 
[Ci fib]
+8.4 +7.5 94 +9  1019.8  0.1  758  295           
03 23.09.18 040 (СВ) 10 км  туман поземный  3/0 верхняя 
[Ci fib]
+7.6 +6.7 94 +9  1019.7  0.1  758  296  +7        сухая 
06 23.09.18 220 (ЮЗ) 20000 м    ясно 
+18.2 +12.5 69 +23  1018.6  -0.7  757  284           
09 23.09.18 210 (ЮЗ) 20000 м    8/3 1000 м средняя, верхняя 
[Cu hum|Ac trans|Ci fib]
+24.6 +11.2 43 +27  1017.1  -1.3  756  277           
12 23.09.18 190 (Ю) 5{10}  20000 м    8/1 1000 м средняя, верхняя 
[Cu hum|Ac trans|Ci fib]
+24.6 +10.4 41 +26  1015.6  -1.5  755  277           
15 23.09.18 160 (Ю) 4{10}  20000 м    3/0 средняя 
[Ac trans]
+20.2 +10.7 54 +22  1014.5  -1.2  754  281    +25.2       
18 23.09.18 140 (ЮВ) 20000 м    3/0 верхняя 
[Ci sp]
+15.9 +9.1 64 +16  1013.6  -1.1  753  285           
21 23.09.18 150 (ЮВ) 20000 м    4/0 верхняя 
[Ci sp]
+15 +7.2 60 +15  1012.6  -1  753  286           
00 24.09.18 150 (ЮВ) 20000 м    5/0 средняя, верхняя 
[Ac trans|Ci sp]
+13.3 +4.3 54 +13  1011.8  -0.8  752  288           
03 24.09.18 130 (ЮВ) 20000 м    8/0 средняя, верхняя 
[Ac trans|Ci fib]
+12 +2.3 51 +11  1011  -0.9  751  290  +11.7        сухая 
06 24.09.18 150 (ЮВ) 7-11{11}  20000 м    5/0 средняя, верхняя 
[Ac trans|Ci fib]
+18.9 +3.5 36 +19  1010.2  -0.5  751  282           
09 24.09.18 170 (Ю) 10-14{16}  20000 м    8/0 средняя, верхняя 
[Ac trans|Ci fib]
+22.5 -0.1 22 +23  1010.5  0.4  751  280           
12 24.09.18 180 (Ю) 7-11{15}  20000 м    4/0 средняя, верхняя 
[Ac trans|Ci fib]
+22 +3.6 30 +22  1010.8  0.3  751  280           
15 24.09.18 250 (З) 3{11}  20000 м    10/0 средняя 
[Ac As]
+17.1 +8.1 55 +18  1012.5  1.5  753  284    +23       
18 24.09.18 тихо ()   20000 м    10/0 средняя 
[Ac As]
+13.3 +9.5 78 +14  1012.2  -0.4  752  287           
21 24.09.18 220 (ЮЗ) 20000 м    10/0 средняя, верхняя 
[Ac trans|Ci sp]
+9.4 +7.7 89 +10  1011.7  -0.6  752  292           
00 25.09.18 160 (Ю) 20000 м    10/0 средняя, верхняя 
[Ac trans|Ci fib]
+9.8 +7.5 86 +11  1011.6  0.1  752  291           
03 25.09.18 170 (Ю) 4000 м  дымка  10/0 средняя 
[Ac trans]
+11.1 +10 93 +11  1011.8  0.2  752  289  +9.3        сухая 
06 25.09.18 160 (Ю) 6{10}  20000 м    10/0 средняя 
[Ac As]
+12.6 +9.5 81 +12  1011.6  -0.1  752  288           
09 25.09.18 170 (Ю) 8-11{11}  20000 м    10/3 600 м кучево-дожд., средняя, верхняя 
[Cb cap|Ac trans|Ci sp]
+14.4 +9.3 71 +13  1011.8  0.2  752  286           
12 25.09.18 170 (Ю) 7-10{13}  20000 м    10/3 600 м кучево-дожд., средняя 
[Cb cap|Ac As]
+16.6 +7 53 +16  1010.3  -1.4  751  284           
15 25.09.18 170 (Ю) 7-11{11}  20000 м    10/3 1000 м кучево-дожд., средняя 
[Cb cap|Ac As]
+17.3 +4.3 42 +17  1009.6  -0.7  750  284    +17.3       
18 25.09.18 170 (Ю) 7-10{12}  20000 м    10/0 средняя 
[Ac As]
+17.2 +3.4 40 +17  1009.5  -0.2  750  284           
21 25.09.18 180 (Ю) 5{10}  20000 м    10/0 средняя 
[Ac As]
+16.8 +4.1 43 +17  1009.6  0.1  750  284           
00 26.09.18 270 (З) 20000 м    10/0 средняя 
[Ac As]
+10.6 +6.6 76 +10  1011.7  1.9  752  291           
Время (UTC), дата Ветер
(°,м/с) 
Видим.   Явления Облачность Т
(°С)
Тd
(°С)
f(%) Тe
(°С)
Pmin
(гПа)
dP
(гПа)
Po
(мм)
O2
(г/м3)
Тmin Tmax R s Состояние
почвы

Для получения пояснительной информации подведите курсор к названию столбца.

ПОГОДА Чулпаново - архив

Всё, что Вы хотите узнать о погоде Чулпаново - удобно и подробно!

Выберите нужную дату (начиная с 1 января 2015* года) и нажмите кнопку "Найти".
Будут отображены архивные сводки погоды по пункту Чулпаново, начиная с указанной даты.


Отображать данные в формате CSV (для использования в таблицах Excel)


Внимание! Наш архив погоды предназначен исключительно для личного некоммерческого использования в познавательных целях. Если Вам необходимы официальные справки о состоянии погоды (для производственных, юридических, коммерческих и т.п. целей), обращайтесь в органы Росгидромета.

*Примечание: данная дата относится к архиву по метеостанциям СССР (Россия, СНГ, Балтия).
Архив по метеостанциям Зарубежной Европы и Азии (кроме Китая) хранится 10 дней, по другим регионам земного шара (Китай, Африка, Америка, Австралия, Океания) - 1 день.

Чулпаново - район местоположения метеостанции


Название, широта, долгота, высота метеостанции:
Чулпаново 54.5°ш. 50.4°д. 78 м над ур. моря [Российская Федерация]

Дополнительная информация

В oтличие oт бoльшинства пoгoдных сайтoв мы публикуем пoдрoбную метеoинфoрмацию в детальнoм прoфессиoнальнoм фoрмате.

Характеристики температуры и влажнoсти вoздуха измеряются на высoте 2 м в тени вдали oт зданий и деревьев.
Скoрoсть ветра измеряется на высoте 10 м (на урoвне рoста челoвека скoрoсть ветра ниже в 1.5-2 раза). Если метеoстанция нахoдится в гoрoде или в лесу, тo скoрoсть ветра занижена на 2-4 м/с пo сравнению с oткрытым местoм. Скoрoсть ветра над акватoриями крупных рек и oзёр, а также на вершинах хoлмoв на 2-5 м/с выше, чем в oбычных услoвиях.
Атмoсфернoе давление в разных тoчках местнoсти мoжет значительнo oтличаться oт давления на метеoстанции, в зависимoсти oт услoвий рельефа (при пoдъёме на 10 м давление пoнижается примернo на 1 мм рт.ст.).